When you browse on this site, cookies collect data to enhance your experience and personalize the content and advertising you see.
Visit our Privacy Policy to learn more. By continuing to use the site, you agree to this use of cookies and data.
  • In Netherlands
  • List of Countries
  • For 7 days
  • Water Temperature
  • Satellite Maps
  • Weather Map
  • Weather Widgets
  • user-avatar
    Login

    Hourly Weather Brasília

    Today, 27 May, Monday

    Time Temperature Precipitation Wind Pressure Humidity
    00:00 +22°C° 0.1 mm 1 mps 667 mmHg 77%
    01:00 +22°C° 0 mm 1 mps 667 mmHg 80%
    02:00 +21°C° 0 mm 1 mps 667 mmHg 82%
    03:00 +20°C° 0 mm 1 mps 667 mmHg 85%
    04:00 +20°C° 0 mm 1 mps 667 mmHg 86%
    05:00 +20°C° 0 mm 1 mps 666 mmHg 86%
    06:00 +20°C° 0 mm 1 mps 666 mmHg 87%
    07:00 +20°C° 0 mm 2 mps 667 mmHg 82%
    08:00 +21°C° 0 mm 2 mps 668 mmHg 77%
    09:00 +22°C° 0 mm 3 mps 668 mmHg 72%
    10:00 +25°C° 0 mm 3 mps 668 mmHg 66%
    11:00 +26°C° 0 mm 3 mps 669 mmHg 60%
    12:00 +28°C° 0 mm 3 mps 669 mmHg 54%
    13:00 +28°C° 0 mm 3 mps 668 mmHg 53%
    14:00 +28°C° 0 mm 3 mps 667 mmHg 52%
    15:00 +28°C° 0 mm 2 mps 667 mmHg 51%
    16:00 +27°C° 0 mm 2 mps 667 mmHg 57%
    17:00 +25°C° 0 mm 2 mps 666 mmHg 63%
    18:00 +24°C° 0 mm 2 mps 666 mmHg 69%
    19:00 +23°C° 0 mm 2 mps 666 mmHg 71%
    20:00 +21°C° 0 mm 2 mps 667 mmHg 73%
    21:00 +21°C° 0 mm 2 mps 667 mmHg 76%
    22:00 +20°C° 0 mm 2 mps 667 mmHg 78%
    23:00 +20°C° 0 mm 2 mps 667 mmHg 80%

    Tomorrow, 28 May, Tuesday

    Time Temperature Precipitation Wind Pressure Humidity
    00:00 +19°C° 0 mm 2 mps 667 mmHg 82%
    01:00 +19°C° 0 mm 2 mps 666 mmHg 84%
    02:00 +19°C° 0 mm 2 mps 666 mmHg 85%
    03:00 +19°C° 0 mm 2 mps 666 mmHg 87%
    04:00 +19°C° 0 mm 2 mps 666 mmHg 88%
    05:00 +18°C° 0 mm 2 mps 666 mmHg 89%
    06:00 +18°C° 0 mm 2 mps 666 mmHg 90%
    07:00 +20°C° 0 mm 3 mps 667 mmHg 83%
    08:00 +21°C° 0 mm 3 mps 668 mmHg 77%
    09:00 +22°C° 0 mm 4 mps 668 mmHg 70%
    10:00 +25°C° 0 mm 4 mps 668 mmHg 65%
    11:00 +26°C° 0 mm 4 mps 668 mmHg 60%
    12:00 +27°C° 0 mm 4 mps 669 mmHg 56%
    13:00 +27°C° 0 mm 3 mps 668 mmHg 54%
    14:00 +27°C° 0 mm 3 mps 667 mmHg 53%
    15:00 +28°C° 0 mm 3 mps 667 mmHg 52%
    16:00 +26°C° 0 mm 3 mps 666 mmHg 57%
    17:00 +25°C° 0 mm 2 mps 666 mmHg 62%
    18:00 +23°C° 0 mm 2 mps 666 mmHg 67%
    19:00 +22°C° 0 mm 1 mps 666 mmHg 70%
    20:00 +22°C° 0 mm 1 mps 667 mmHg 72%
    21:00 +21°C° 0 mm 1 mps 667 mmHg 75%
    22:00 +21°C° 0 mm 1 mps 667 mmHg 76%
    23:00 +20°C° 0 mm 1 mps 667 mmHg 77%

    Day after tomorrow, 29 May, Wednesday

    Time Temperature Precipitation Wind Pressure Humidity
    00:00 +20°C° 0 mm 1 mps 667 mmHg 79%
    01:00 +20°C° 0 mm 1 mps 667 mmHg 80%
    02:00 +20°C° 0 mm 1 mps 666 mmHg 81%
    03:00 +19°C° 0 mm 1 mps 666 mmHg 82%
    04:00 +19°C° 0 mm 1 mps 666 mmHg 83%
    05:00 +19°C° 0 mm 1 mps 666 mmHg 84%
    06:00 +19°C° 0 mm 1 mps 666 mmHg 84%
    07:00 +19°C° 0 mm 2 mps 667 mmHg 79%
    08:00 +21°C° 0 mm 2 mps 668 mmHg 73%
    09:00 +24°C° 0 mm 3 mps 669 mmHg 67%
    10:00 +25°C° 0 mm 3 mps 669 mmHg 62%
    11:00 +26°C° 0 mm 3 mps 669 mmHg 57%
    12:00 +28°C° 0 mm 2 mps 669 mmHg 52%
    13:00 +28°C° 0 mm 2 mps 668 mmHg 52%
    14:00 +28°C° 0 mm 2 mps 667 mmHg 51%
    15:00 +28°C° 0 mm 2 mps 667 mmHg 50%
    16:00 +27°C° 0.1 mm 2 mps 666 mmHg 57%
    17:00 +25°C° 0.1 mm 2 mps 666 mmHg 63%
    18:00 +23°C° 0.1 mm 2 mps 665 mmHg 69%
    19:00 +23°C° 0.1 mm 2 mps 666 mmHg 72%
    20:00 +21°C° 0.1 mm 2 mps 666 mmHg 75%
    21:00 +21°C° 0.1 mm 2 mps 666 mmHg 77%
    22:00 +20°C° 0 mm 2 mps 666 mmHg 79%
    23:00 +20°C° 0 mm 2 mps 666 mmHg 81%

    30 May, Thursday

    Time Temperature Precipitation Wind Pressure Humidity
    00:00 +20°C° 0 mm 2 mps 666 mmHg 83%
    01:00 +19°C° 0 mm 2 mps 666 mmHg 84%
    02:00 +20°C° 0 mm 1 mps 665 mmHg 85%
    03:00 +20°C° 0 mm 1 mps 665 mmHg 86%
    04:00 +19°C° 0 mm 1 mps 665 mmHg 86%
    05:00 +19°C° 0 mm 1 mps 665 mmHg 86%
    06:00 +19°C° 0 mm 1 mps 665 mmHg 87%
    07:00 +20°C° 0 mm 2 mps 666 mmHg 80%
    08:00 +21°C° 0 mm 2 mps 667 mmHg 73%
    09:00 +24°C° 0 mm 3 mps 668 mmHg 67%
    10:00 +25°C° 0 mm 3 mps 668 mmHg 62%
    11:00 +27°C° 0 mm 3 mps 668 mmHg 58%
    12:00 +28°C° 0 mm 3 mps 668 mmHg 54%
    13:00 +28°C° 0 mm 3 mps 667 mmHg 53%
    14:00 +28°C° 0 mm 3 mps 666 mmHg 52%
    15:00 +28°C° 0 mm 3 mps 666 mmHg 51%
    16:00 +27°C° 0 mm 2 mps 665 mmHg 57%
    17:00 +25°C° 0 mm 2 mps 665 mmHg 62%
    18:00 +24°C° 0 mm 2 mps 665 mmHg 68%
    19:00 +23°C° 0 mm 2 mps 665 mmHg 71%
    20:00 +21°C° 0 mm 2 mps 665 mmHg 74%
    21:00 +21°C° 0 mm 2 mps 666 mmHg 76%
    22:00 +20°C° 0 mm 2 mps 665 mmHg 78%
    23:00 +20°C° 0 mm 2 mps 665 mmHg 79%

    31 May, Friday

    Time Temperature Precipitation Wind Pressure Humidity
    00:00 +20°C° 0 mm 1 mps 665 mmHg 81%
    01:00 +20°C° 0 mm 1 mps 665 mmHg 82%
    02:00 +20°C° 0 mm 1 mps 665 mmHg 83%
    03:00 +20°C° 0 mm 1 mps 665 mmHg 84%
    04:00 +20°C° 0 mm 1 mps 665 mmHg 85%
    05:00 +19°C° 0 mm 1 mps 665 mmHg 85%
    06:00 +19°C° 0 mm 1 mps 665 mmHg 85%
    07:00 +20°C° 0 mm 2 mps 666 mmHg 77%
    08:00 +23°C° 0 mm 2 mps 667 mmHg 70%
    09:00 +25°C° 0 mm 2 mps 668 mmHg 62%
    10:00 +26°C° 0 mm 2 mps 668 mmHg 56%
    11:00 +28°C° 0 mm 2 mps 668 mmHg 50%
    12:00 +29°C° 0 mm 1 mps 668 mmHg 43%
    13:00 +29°C° 0 mm 1 mps 667 mmHg 43%
    14:00 +29°C° 0 mm 1 mps 666 mmHg 43%
    15:00 +27°C° 0 mm 0 mps 666 mmHg 43%
    16:00 +27°C° 0 mm 1 mps 665 mmHg 48%
    17:00 +26°C° 0 mm 1 mps 665 mmHg 53%
    18:00 +24°C° 0 mm 1 mps 665 mmHg 58%
    19:00 +24°C° 0 mm 1 mps 665 mmHg 61%
    20:00 +23°C° 0 mm 1 mps 666 mmHg 63%
    21:00 +22°C° 0 mm 1 mps 666 mmHg 66%
    22:00 +22°C° 0 mm 1 mps 666 mmHg 67%
    23:00 +22°C° 0 mm 1 mps 666 mmHg 67%

    1 June, Saturday

    Time Temperature Precipitation Wind Pressure Humidity
    00:00 +22°C° 0 mm 1 mps 665 mmHg 68%
    01:00 +21°C° 0 mm 1 mps 665 mmHg 68%
    02:00 +21°C° 0 mm 1 mps 665 mmHg 69%
    03:00 +20°C° 0 mm 1 mps 665 mmHg 69%
    04:00 +20°C° 0 mm 1 mps 665 mmHg 70%
    05:00 +19°C° 0 mm 1 mps 665 mmHg 70%
    06:00 +19°C° 0 mm 1 mps 665 mmHg 71%
    07:00 +20°C° 0 mm 2 mps 666 mmHg 66%
    08:00 +23°C° 0 mm 2 mps 667 mmHg 61%
    09:00 +25°C° 0 mm 3 mps 667 mmHg 56%
    10:00 +26°C° 0 mm 3 mps 667 mmHg 52%
    11:00 +27°C° 0 mm 3 mps 667 mmHg 47%
    12:00 +29°C° 0 mm 3 mps 667 mmHg 42%
    13:00 +29°C° 0 mm 2 mps 667 mmHg 42%
    14:00 +29°C° 0 mm 2 mps 666 mmHg 41%
    15:00 +29°C° 0 mm 2 mps 666 mmHg 40%
    16:00 +28°C° 0 mm 2 mps 666 mmHg 45%
    17:00 +26°C° 0 mm 2 mps 665 mmHg 50%
    18:00 +25°C° 0 mm 2 mps 665 mmHg 55%
    19:00 +24°C° 0 mm 2 mps 665 mmHg 57%
    20:00 +23°C° 0 mm 2 mps 666 mmHg 59%
    21:00 +23°C° 0 mm 2 mps 666 mmHg 60%
    22:00 +23°C° 0 mm 1 mps 666 mmHg 61%
    23:00 +22°C° 0 mm 1 mps 666 mmHg 61%
    Show more